Location: Fornova de Taro
(44.7000°N, 10.1000°E)
Time: 02:29:17
(UTC+00:00)

Cosmos 1378 Rocket - Pass Details

Date: 26 May 2022
Orbit: 601 x 627 km, 82.5° (Epoch: 26 June)

Event Time Altitude Azimuth Distance (km) Brightness Sun altitude
Exits shadow 00:22:21 41° 269° (W) 912 4.2 -22.5°
Maximum altitude 00:22:44 42° 284° (WNW) 898 4.3 -22.5°
Drops below altitude 10° 00:26:58 10° 355° (N) 2,008 7.1 -22.3°
Sets 00:29:19 0° 3° (N) 2,922 8.3 -22.1°
